Find Starlink 35104

NORAD ID: 65631 Int'l Des: 2025-210 Owner: SPXS Country: US Constellation: starlink operational
LEOCIRCULAR

实时位置

正在加载3D地球...

关于 Starlink 35104

正在加载描述...

即将过境

Passes for default location (London). Set your location on the main map for personalized predictions.

高度历史

Loading altitude history...

两行轨道根数

1 65631U 25210K 26106.50545866 .00007818 00000-0 27576-3 0 9999
2 65631 53.1577 131.2303 0001031 66.0869 294.0240 15.30203537 33516
Epoch: Apr 16, 2026 • Age: 10 hours

当前状态

高度 479.5 km
速度 7.63 km/s
星下点 46.61°N, 9.05°E
发射日期 Sep 18, 2025
运行时间 0.5 years
类型 internet

技术详情

分类 Payload
质量 575.00 kg
干质量 530.00 kg
总质量 575.00 kg
长度 0.30 m
直径 4.10 m
跨度 29.00 m
形状 Box + pan
制造商 SPXS
平台类型 Starlink V2MO
阶段状态 In Orbit
所有者/国家 SPXS/US

Most Searched